When you browse on this site, cookies collect data to enhance your experience and personalize the content and advertising you see.
Visit our Privacy Policy to learn more. By continuing to use the site, you agree to this use of cookies and data.

Tiempo cada hora Loncoche

Hoy, 22 Septiembre, Martes

Tiempo Temperatura Precipitaciones Viento Presión Humedad
00:00 +4°C° 0 mm 0 mps 754 mmHg 97%
01:00 +3°C° 0 mm 0 mps 754 mmHg 98%
02:00 +3°C° 0 mm 0 mps 754 mmHg 98%
03:00 +3°C° 0 mm 0 mps 754 mmHg 98%
04:00 +3°C° 0 mm 0 mps 754 mmHg 98%
05:00 +4°C° 0 mm 0 mps 754 mmHg 96%
06:00 +5°C° 0 mm 0 mps 754 mmHg 93%
07:00 +6°C° 0 mm 0 mps 754 mmHg 91%
08:00 +8°C° 0 mm 0 mps 754 mmHg 80%
09:00 +11°C° 0 mm 0 mps 754 mmHg 70%
10:00 +15°C° 0 mm 1 mps 754 mmHg 60%
11:00 +16°C° 0 mm 1 mps 754 mmHg 56%
12:00 +16°C° 0 mm 1 mps 754 mmHg 52%
13:00 +18°C° 0 mm 1 mps 754 mmHg 48%
14:00 +18°C° 0 mm 1 mps 753 mmHg 52%
15:00 +16°C° 0 mm 2 mps 753 mmHg 55%
16:00 +16°C° 0 mm 2 mps 753 mmHg 59%
17:00 +13°C° 0 mm 1 mps 754 mmHg 70%
18:00 +11°C° 0 mm 1 mps 754 mmHg 81%
19:00 +8°C° 0 mm 1 mps 755 mmHg 93%
20:00 +7°C° 0 mm 1 mps 755 mmHg 94%
21:00 +7°C° 0 mm 1 mps 755 mmHg 95%
22:00 +6°C° 0 mm 1 mps 755 mmHg 96%
23:00 +6°C° 0 mm 1 mps 755 mmHg 97%

Mañana, 23 Septiembre, Miércoles

Tiempo Temperatura Precipitaciones Viento Presión Humedad
00:00 +5°C° 0 mm 1 mps 755 mmHg 97%
01:00 +5°C° 0 mm 1 mps 754 mmHg 98%
02:00 +4°C° 0 mm 1 mps 754 mmHg 98%
03:00 +4°C° 0 mm 1 mps 754 mmHg 98%
04:00 +4°C° 0 mm 1 mps 753 mmHg 98%
05:00 +4°C° 0 mm 1 mps 753 mmHg 96%
06:00 +5°C° 0 mm 1 mps 753 mmHg 95%
07:00 +5°C° 0 mm 1 mps 753 mmHg 93%
08:00 +8°C° 0 mm 1 mps 753 mmHg 81%
09:00 +11°C° 0 mm 1 mps 753 mmHg 69%
10:00 +13°C° 0 mm 1 mps 752 mmHg 58%
11:00 +15°C° 0 mm 1 mps 752 mmHg 54%
12:00 +16°C° 0 mm 1 mps 751 mmHg 51%
13:00 +18°C° 0 mm 1 mps 751 mmHg 47%
14:00 +18°C° 0 mm 1 mps 751 mmHg 50%
15:00 +18°C° 0 mm 1 mps 751 mmHg 54%
16:00 +16°C° 0 mm 1 mps 750 mmHg 57%
17:00 +14°C° 0 mm 1 mps 751 mmHg 68%
18:00 +11°C° 0 mm 1 mps 751 mmHg 79%
19:00 +8°C° 0 mm 0 mps 752 mmHg 90%
20:00 +7°C° 0 mm 0 mps 752 mmHg 90%
21:00 +6°C° 0 mm 0 mps 752 mmHg 90%
22:00 +5°C° 0 mm 0 mps 752 mmHg 91%
23:00 +6°C° 0 mm 1 mps 752 mmHg 92%

Pasado mañana, 24 Septiembre, Jueves

Tiempo Temperatura Precipitaciones Viento Presión Humedad
00:00 +5°C° 0 mm 1 mps 752 mmHg 93%
01:00 +4°C° 0 mm 1 mps 752 mmHg 93%
02:00 +4°C° 0 mm 1 mps 752 mmHg 95%
03:00 +3°C° 0 mm 1 mps 751 mmHg 96%
04:00 +3°C° 0 mm 1 mps 751 mmHg 98%
05:00 +4°C° 0 mm 1 mps 752 mmHg 96%
06:00 +5°C° 0 mm 1 mps 752 mmHg 94%
07:00 +5°C° 0 mm 1 mps 752 mmHg 92%
08:00 +7°C° 0 mm 1 mps 752 mmHg 84%
09:00 +9°C° 0 mm 1 mps 752 mmHg 77%
10:00 +11°C° 0 mm 1 mps 752 mmHg 69%
11:00 +13°C° 0 mm 1 mps 751 mmHg 63%
12:00 +15°C° 0 mm 1 mps 751 mmHg 56%
13:00 +18°C° 0 mm 1 mps 751 mmHg 50%
14:00 +16°C° 0 mm 1 mps 751 mmHg 52%
15:00 +16°C° 0 mm 1 mps 751 mmHg 54%
16:00 +16°C° 0 mm 1 mps 751 mmHg 56%
17:00 +14°C° 0 mm 1 mps 751 mmHg 68%
18:00 +11°C° 0 mm 1 mps 752 mmHg 80%
19:00 +8°C° 0 mm 1 mps 752 mmHg 91%
20:00 +7°C° 0 mm 1 mps 752 mmHg 91%
21:00 +6°C° 0 mm 1 mps 753 mmHg 91%
22:00 +6°C° 0 mm 1 mps 753 mmHg 91%
23:00 +5°C° 0 mm 1 mps 753 mmHg 93%

25 Septiembre, Viernes

Tiempo Temperatura Precipitaciones Viento Presión Humedad
00:00 +5°C° 0 mm 1 mps 753 mmHg 95%
01:00 +4°C° 0 mm 1 mps 753 mmHg 97%
02:00 +4°C° 0 mm 1 mps 753 mmHg 97%
03:00 +4°C° 0 mm 1 mps 753 mmHg 98%
04:00 +4°C° 0 mm 1 mps 753 mmHg 98%
05:00 +5°C° 0 mm 1 mps 754 mmHg 96%
06:00 +5°C° 0 mm 1 mps 754 mmHg 94%
07:00 +6°C° 0 mm 1 mps 754 mmHg 92%
08:00 +8°C° 0 mm 1 mps 754 mmHg 84%
09:00 +10°C° 0 mm 1 mps 754 mmHg 75%
10:00 +11°C° 0 mm 1 mps 754 mmHg 66%
11:00 +13°C° 0 mm 1 mps 754 mmHg 61%
12:00 +14°C° 0 mm 1 mps 754 mmHg 55%
13:00 +16°C° 0 mm 1 mps 754 mmHg 49%
14:00 +16°C° 0 mm 1 mps 755 mmHg 51%
15:00 +16°C° 0 mm 1 mps 755 mmHg 54%
16:00 +15°C° 0 mm 1 mps 755 mmHg 56%
17:00 +13°C° 0 mm 1 mps 755 mmHg 67%
18:00 +11°C° 0 mm 1 mps 756 mmHg 78%
19:00 +8°C° 0 mm 0 mps 756 mmHg 89%
20:00 +8°C° 0 mm 0 mps 757 mmHg 88%
21:00 +8°C° 0 mm 0 mps 757 mmHg 88%
22:00 +8°C° 0 mm 0 mps 757 mmHg 88%
23:00 +7°C° 0 mm 0 mps 757 mmHg 90%

26 Septiembre, Sábado

Tiempo Temperatura Precipitaciones Viento Presión Humedad
00:00 +7°C° 0 mm 0 mps 757 mmHg 92%
01:00 +6°C° 0 mm 0 mps 758 mmHg 93%
02:00 +6°C° 0 mm 0 mps 757 mmHg 94%
03:00 +6°C° 0 mm 0 mps 757 mmHg 95%
04:00 +6°C° 0 mm 0 mps 757 mmHg 96%
05:00 +6°C° 0 mm 0 mps 757 mmHg 93%
06:00 +7°C° 0 mm 0 mps 757 mmHg 91%
07:00 +7°C° 0 mm 0 mps 757 mmHg 88%
08:00 +10°C° 0 mm 1 mps 757 mmHg 79%
09:00 +12°C° 0 mm 1 mps 756 mmHg 69%
10:00 +13°C° 0 mm 2 mps 756 mmHg 59%
11:00 +14°C° 0 mm 2 mps 756 mmHg 58%
12:00 +14°C° 0 mm 2 mps 755 mmHg 57%
13:00 +15°C° 0 mm 2 mps 755 mmHg 55%
14:00 +14°C° 0 mm 2 mps 755 mmHg 57%
15:00 +14°C° 0 mm 2 mps 754 mmHg 58%
16:00 +14°C° 0 mm 2 mps 754 mmHg 60%
17:00 +12°C° 0 mm 2 mps 754 mmHg 68%
18:00 +10°C° 0 mm 1 mps 755 mmHg 77%
19:00 +8°C° 0 mm 1 mps 755 mmHg 85%
20:00 +7°C° 0 mm 1 mps 755 mmHg 87%
21:00 +6°C° 0 mm 1 mps 755 mmHg 89%
22:00 +5°C° 0 mm 1 mps 755 mmHg 91%
23:00 +4°C° 0 mm 0 mps 755 mmHg 93%

27 Septiembre, Domingo

Tiempo Temperatura Precipitaciones Viento Presión Humedad
00:00 +3°C° 0 mm 0 mps 755 mmHg 95%
01:00 +3°C° 0 mm 0 mps 754 mmHg 97%
02:00 +2°C° 0 mm 0 mps 754 mmHg 97%
03:00 +2°C° 0 mm 0 mps 754 mmHg 98%
04:00 +2°C° 0 mm 0 mps 754 mmHg 98%
05:00 +3°C° 0 mm 0 mps 754 mmHg 95%
06:00 +4°C° 0 mm 0 mps 754 mmHg 92%
07:00 +5°C° 0 mm 0 mps 754 mmHg 89%
08:00 +7°C° 0 mm 0 mps 754 mmHg 78%
09:00 +11°C° 0 mm 1 mps 753 mmHg 67%
10:00 +13°C° 0 mm 1 mps 753 mmHg 56%
11:00 +14°C° 0 mm 1 mps 753 mmHg 54%
12:00 +15°C° 0 mm 2 mps 753 mmHg 52%
13:00 +15°C° 0 mm 2 mps 752 mmHg 50%
14:00 +15°C° 0 mm 2 mps 752 mmHg 53%
15:00 +14°C° 0 mm 2 mps 752 mmHg 56%
16:00 +14°C° 0 mm 2 mps 752 mmHg 60%
17:00 +11°C° 0 mm 1 mps 752 mmHg 70%
18:00 +9°C° 0 mm 1 mps 752 mmHg 80%
19:00 +7°C° 0 mm 1 mps 752 mmHg 90%
20:00 +6°C° 0 mm 0 mps 752 mmHg 92%
21:00 +5°C° 0 mm 0 mps 752 mmHg 95%
22:00 +4°C° 0 mm 0 mps 752 mmHg 97%
23:00 +4°C° 0 mm 0 mps 752 mmHg 97%
Mostrar más